[[{"header":{"parameterUnit":"m.s-1","parameterCategory":2,"la1":30.2991,"la2":30.254,"lo1":-89.0895,"lo2":-89.0444,"dx":0.0017,"dy":0.0017,"nx":28,"ny":28,"refTime":"2022-11-08T09:00:00:Z","depth":"0","parameterNumber":2,"parameterNumberName":"U-component_of_CURRENTS"},"data":[0,0,0,0,0,0,0,0,0,0,0,0,0,0,0,0,0,0,0,0,0,0,0,0,0,0,0,0,0,0,0,0,0,0,0,0,0,0,0,0,0,0,0,0,0,0,0,0,0,0,0,0,0,0,0,0,0,0,0.3418,0.3419,0,0.3468,0.3468,0.3467,0.3472,0.3472,0.3472,0.3473,0.3424,0.3422,0.3421,0,0,0,0,0,0,0,0,0,0,0,0,0,0.3285,0.3287,0.3417,0.3419,0.342,0.3468,0.3468,0.3467,0.3472,0.3472,0.3473,0.3473,0.3424,0.3423,0.3421,0,0,0,0,0,0,0,0,0,0,0,0,0,0.3332,0.3288,0.3417,0.3434,0.3437,0.3468,0.3468,0.3467,0.3472,0.3472,0.3473,0.3473,0.3425,0.3423,0.342,0.3399,0,0,0.3413,0.3412,0,0,0,0,0,0,0,0,0.3329,0.3336,0.343,0.3433,0.3436,0.3471,0.3404,0.3443,0.3472,0.345,0.3473,0.3473,0.3436,0.3433,0.3431,0.3397,0.3395,0.3413,0.3412,0.3411,0.341,0,0,0,0,0,0,0,0.3326,0.3333,0.3429,0.3432,0.3436,0.3427,0.3433,0.341,0.3432,0.3452,0.3454,0.3473,0.3436,0.3433,0.3429,0.3394,0.3413,0.3411,0.341,0.3409,0.3413,0.3415,0,0,0,0,0,0,0.3339,0.3331,0.3427,0.3431,0.3392,0.3429,0.3436,0.3453,0.3434,0.3435,0.3473,0.3473,0.3437,0.3432,0.3428,0.3471,0.3411,0.3409,0.3407,0.3412,0.3414,0.3415,0,0,0,0,0,0,0.3336,0.3347,0.3425,0.3388,0.3399,0.3432,0.345,0.3454,0.3461,0.3453,0.345,0.3479,0.3437,0.3431,0.3433,0.3466,0.3408,0.3406,0.341,0.3412,0.3414,0.3512,0,0,0,0,0,0,0.3332,0.3345,0.3351,0.339,0.3402,0.3459,0.3451,0.3455,0.3476,0.3477,0.3457,0.3452,0.3437,0.3437,0.3431,0.3462,0.3404,0.3408,0.3411,0.3414,0.3507,0.3517,0.3526,0,0,0,0,0,0.3326,0.3343,0.3351,0.3363,0.3413,0.3461,0.3465,0.3483,0.3476,0.3487,0.3481,0.3453,0.3451,0.3436,0.3429,0.346,0.3407,0.341,0.3414,0.3502,0.3515,0.3525,0,0,0,0,0,0,0.3283,0.3347,0.3356,0.3389,0.3429,0.3465,0.3479,0.3487,0.3489,0.3488,0.3465,0.3461,0.3479,0.3452,0.3437,0.347,0.3426,0.3428,0.3496,0.3508,0.3517,0.3528,0.3402,0,0,0,0,0,0.328,0.331,0.3366,0.3391,0.3414,0.3443,0.346,0.3479,0.3495,0.3497,0.3487,0.3479,0.3484,0.3483,0.3476,0.3484,0.3478,0.3502,0.3511,0.352,0.3524,0.3552,0.3565,0.3426,0.3426,0.3426,0,0,0.3269,0.3309,0.3324,0.3384,0.3412,0.3446,0.3453,0.3493,0.3518,0.3488,0.3507,0.3508,0.3494,0.3519,0.3523,0.3501,0.3559,0.3524,0.3531,0.3531,0.3557,0.357,0.3582,0.3428,0.3428,0.3428,0,0,0.3265,0.3302,0.3324,0.3363,0.3423,0.3452,0.3467,0.3512,0.353,0.3556,0.355,0.3577,0.3564,0.3582,0.3583,0.3636,0.3609,0.3631,0.3688,0.3715,0.3727,0.3737,0.3761,0.3772,0.3636,0.3637,0.3637,0,0.3247,0.3287,0.3337,0.3371,0.3405,0.3456,0.3485,0.3517,0.3555,0.358,0.3573,0.3609,0.3599,0.3646,0.3677,0.3659,0.3666,0.3647,0.3729,0.3739,0.3748,0.3769,0.378,0.3642,0.3641,0.3641,0.364,0,0.326,0.3294,0.3317,0.3377,0.3417,0.3459,0.3522,0.356,0.359,0.3624,0.3682,0.3693,0.3713,0.3728,0.3719,0.3785,0.3768,0.3739,0.3702,0.3768,0.3785,0.3796,0.3649,0.3647,0.3646,0.3644,0,0,0.3215,0.3307,0.3311,0.334,0.3428,0.3461,0.3526,0.36,0.3637,0.3696,0.3744,0.3796,0.3814,0.3817,0.3822,0.3862,0.3941,0.3835,0.3834,0.3863,0.4006,0.3909,0.391,0.3929,0.3931,0.3933,0.3999,0,0.3209,0.3261,0.3315,0.3366,0.3402,0.348,0.353,0.3604,0.3666,0.3724,0.379,0.3827,0.3844,0.3857,0.3909,0.3925,0.3969,0.3925,0.3933,0.3934,0.3842,0.3919,0.371,0.3743,0.4008,0.401,0.4011,0,0.3197,0.3241,0.3284,0.3369,0.3391,0.3426,0.3524,0.3577,0.3688,0.3735,0.3817,0.3855,0.3944,0.3927,0.4027,0.3998,0.4014,0.4031,0.4033,0.3912,0.3855,0.3717,0.3751,0.366,0.4026,0.4025,0.4024,0,0.3134,0.3216,0.3249,0.3279,0.3381,0.3415,0.347,0.3576,0.3631,0.374,0.3789,0.3893,0.3938,0.3998,0.4062,0.4041,0.4156,0.4117,0.4052,0.4045,0.3851,0.3823,0.3795,0.418,0.418,0.418,0.418,0,0.3109,0.3134,0.322,0.3239,0.3281,0.3365,0.342,0.3496,0.3602,0.3664,0.378,0.3843,0.3959,0.4042,0.4082,0.4111,0.4174,0.4078,0.4061,0.3879,0.3854,0.3749,0.3717,0.4182,0.4182,0.4181,0.4181,0,0.3038,0.3094,0.3136,0.3227,0.3252,0.3279,0.3382,0.3427,0.3537,0.3621,0.3658,0.3821,0.3928,0.4041,0.4135,0.4117,0.4029,0.4146,0.3929,0.3884,0.3685,0.3665,0.3502,0.3406,0.4063,0.4061,0.4059,0,0.3008,0.3023,0.3103,0.3121,0.3161,0.3216,0.3256,0.3375,0.3424,0.3599,0.3628,0.3779,0.386,0.3988,0.3986,0.4033,0.3968,0.3855,0.3766,0.366,0.3626,0.3515,0.344,0.3561,0.3556,0.3551,0.3547,0,0.2955,0.2981,0.3014,0.3048,0.3082,0.3125,0.3187,0.3224,0.3363,0.3431,0.354,0.3622,0.3746,0.3698,0.3761,0.3765,0.3635,0.3758,0.3701,0.3278,0.3101,0.3004,0.3548,0.3507,0.3511,0.3514,0.3516,0.3517,0.2906,0.2905,0.294,0.2955,0.2994,0.3014,0.2993,0.3073,0.3122,0.3171,0.3351,0.3365,0.3422,0.3466,0.3458,0.3298,0.3346,0.3182,0.3185,0.31,0.2931,0.3388,0.329,0.3292,0.3295,0.3297,0.3299,0,0.2814,0.2818,0.2844,0.2845,0.2824,0.2883,0.2917,0.2864,0.2844,0.2937,0.2979,0.2984,0.2927,0.2972,0.2876,0.2747,0.2633,0.2687,0.249,0.2463,0.2909,0.281,0.2536,0.2536,0.2536,0.2536,0.2537,0.2537,0.2766,0.2726,0.2723,0.2649,0.265,0.2561,0.2536,0.2498,0.2511,0.246,0.2423,0.2491,0.2624,0.258,0.2439,0.2378,0.2224,0.2073,0.2155,0.2479,0.2525,0.257,0.2469,0.2129,0.2128,0.1565,0.1561,0.1557]},{"header":{"parameterUnit":"m.s-1","parameterCategory":2,"la1":30.2991,"la2":30.254,"lo1":-89.0895,"lo2":-89.0444,"dx":0.0017,"dy":0.0017,"nx":28,"ny":28,"refTime":"2022-11-08T09:00:00:Z","depth":"0","parameterNumber":3,"parameterNumberName":"V-component_of_CURRENTS"},"data":[0,0,0,0,0,0,0,0,0,0,0,0,0,0,0,0,0,0,0,0,0,0,0,0,0,0,0,0,0,0,0,0,0,0,0,0,0,0,0,0,0,0,0,0,0,0,0,0,0,0,0,0,0,0,0,0,0,0,-0.0089,-0.009,0,-0.0213,-0.0214,-0.0216,-0.0288,-0.0288,-0.0288,-0.0288,-0.0417,-0.042,-0.0423,0,0,0,0,0,0,0,0,0,0,0,0,0,0.0051,0.0049,-0.0088,-0.009,-0.0092,-0.0213,-0.0214,-0.0216,-0.0287,-0.0288,-0.0288,-0.0289,-0.0416,-0.0419,-0.0423,0,0,0,0,0,0,0,0,0,0,0,0,0,-0.0035,0.0048,-0.0088,-0.0142,-0.0149,-0.0212,-0.0214,-0.0216,-0.0287,-0.0288,-0.0288,-0.0289,-0.0414,-0.0419,-0.0424,-0.0442,0,0,-0.0438,-0.044,0,0,0,0,0,0,0,0,-0.003,-0.004,-0.0133,-0.0139,-0.0146,-0.0236,-0.0212,-0.0292,-0.0287,-0.0234,-0.0288,-0.0289,-0.0356,-0.0366,-0.0387,-0.0448,-0.0454,-0.0438,-0.0441,-0.0443,-0.0444,0,0,0,0,0,0,0,-0.0024,-0.0035,-0.0137,-0.0134,-0.0142,-0.0173,-0.0185,-0.0228,-0.0291,-0.0239,-0.0244,-0.0259,-0.036,-0.0383,-0.0391,-0.0456,-0.0438,-0.0442,-0.0445,-0.0447,-0.0537,-0.0537,0,0,0,0,0,0,-0.0007,-0.0029,-0.0133,-0.0141,-0.0088,-0.0175,-0.0189,-0.0206,-0.029,-0.0304,-0.0258,-0.0262,-0.0374,-0.0385,-0.0396,-0.0431,-0.0443,-0.0447,-0.045,-0.0537,-0.0537,-0.0536,0,0,0,0,0,0,-0.0004,-0.0015,-0.0128,-0.0088,-0.0105,-0.0177,-0.0196,-0.0208,-0.0232,-0.0305,-0.0319,-0.0269,-0.0375,-0.0389,-0.0427,-0.0436,-0.0449,-0.0454,-0.0538,-0.0537,-0.0537,-0.0497,0,0,0,0,0,0,0.0001,-0.0014,-0.0016,-0.0087,-0.0106,-0.0157,-0.0196,-0.021,-0.024,-0.0246,-0.0319,-0.0331,-0.0377,-0.0419,-0.0431,-0.0443,-0.0457,-0.0538,-0.0538,-0.0537,-0.0499,-0.0495,-0.0492,0,0,0,0,0,0.0006,0.0004,-0.0015,-0.0028,-0.0109,-0.0157,-0.0169,-0.0221,-0.024,-0.0245,-0.0292,-0.0329,-0.0423,-0.0422,-0.0437,-0.045,-0.0539,-0.0538,-0.0537,-0.05,-0.0496,-0.0492,0,0,0,0,0,0,0.0058,-0.0005,-0.0028,-0.0051,-0.0095,-0.0169,-0.0177,-0.0214,-0.0257,-0.0258,-0.0326,-0.0342,-0.0375,-0.0412,-0.041,-0.0471,-0.0486,-0.0488,-0.0453,-0.045,-0.0446,-0.042,-0.0461,0,0,0,0,0,0.0071,0.0058,-0.001,-0.0025,-0.0042,-0.0106,-0.0131,-0.0166,-0.0216,-0.0236,-0.0287,-0.0338,-0.0383,-0.0414,-0.0451,-0.0489,-0.0492,-0.0505,-0.0501,-0.0498,-0.0485,-0.0488,-0.0483,-0.0533,-0.0533,-0.0533,0,0,0.0086,0.0052,0.0042,-0.0013,-0.0049,-0.0072,-0.0122,-0.0151,-0.0175,-0.0242,-0.0277,-0.0322,-0.0385,-0.0425,-0.0444,-0.046,-0.0484,-0.0497,-0.0494,-0.0482,-0.0486,-0.0481,-0.0477,-0.0533,-0.0533,-0.0533,0,0,0.0117,0.0084,0.0085,0.0053,0.0005,-0.0037,-0.0041,-0.0108,-0.0139,-0.0179,-0.0232,-0.0276,-0.0346,-0.0399,-0.0435,-0.0433,-0.0456,-0.0448,-0.0426,-0.0429,-0.0425,-0.0421,-0.041,-0.0406,-0.0458,-0.0458,-0.0458,0,0.0137,0.0125,0.0079,0.007,0.0051,-0.0016,-0.002,-0.0066,-0.0137,-0.0154,-0.0177,-0.0272,-0.0334,-0.039,-0.04,-0.0427,-0.0421,-0.0441,-0.0424,-0.042,-0.0417,-0.0407,-0.0403,-0.0456,-0.0456,-0.0456,-0.0457,0,0.0164,0.0155,0.0156,0.0123,0.0098,0.0085,0.002,-0.0003,-0.0045,-0.0094,-0.014,-0.0221,-0.0274,-0.0314,-0.0367,-0.0386,-0.0385,-0.0409,-0.0432,-0.0409,-0.0401,-0.0397,-0.0453,-0.0454,-0.0454,-0.0455,0,0,0.0203,0.018,0.0181,0.0183,0.0127,0.0112,0.0084,0.004,0.0037,-0.0042,-0.0049,-0.0161,-0.0196,-0.0237,-0.0309,-0.034,-0.0332,-0.0367,-0.0368,-0.0352,-0.0318,-0.0305,-0.03,-0.0348,-0.0347,-0.0347,-0.0318,0,0.0238,0.0254,0.0224,0.0233,0.0234,0.0179,0.0163,0.0117,0.0073,0.0052,-0.0044,-0.0076,-0.0173,-0.019,-0.0238,-0.0298,-0.032,-0.0336,-0.0346,-0.0346,-0.0334,-0.0294,-0.0261,-0.0232,-0.0315,-0.0314,-0.0314,0,0.0271,0.0278,0.0306,0.0301,0.0299,0.0296,0.0283,0.0258,0.0202,0.0174,0.0118,0.0053,-0.0021,-0.0089,-0.018,-0.018,-0.024,-0.0293,-0.0293,-0.0289,-0.0325,-0.027,-0.0222,-0.0348,-0.0308,-0.0308,-0.0309,0,0.0331,0.0333,0.0367,0.0362,0.0344,0.0357,0.0347,0.0305,0.0307,0.0264,0.0278,0.0173,0.0147,0.0052,-0.0078,-0.0116,-0.015,-0.0214,-0.0256,-0.0256,-0.0233,-0.0232,-0.0303,-0.0253,-0.0253,-0.0253,-0.0253,0,0.0375,0.0396,0.0407,0.0423,0.0469,0.0432,0.0476,0.0449,0.044,0.0473,0.0356,0.0376,0.0184,0.0125,-0.0006,-0.0101,-0.0088,-0.0229,-0.0242,-0.0218,-0.0216,-0.033,-0.0406,-0.0252,-0.0252,-0.0253,-0.0253,0,0.0425,0.0431,0.047,0.0487,0.05,0.0535,0.0567,0.0596,0.0581,0.0632,0.0631,0.0543,0.0477,0.0298,0.0158,0.0014,-0.0148,-0.0129,-0.0083,-0.0092,-0.0271,-0.0345,-0.0401,-0.0452,-0.0172,-0.0171,-0.0171,0,0.045,0.0481,0.0533,0.0571,0.0584,0.0634,0.0671,0.0667,0.0711,0.0751,0.0793,0.0739,0.0731,0.0527,0.0273,0.0076,-0.008,-0.0048,-0.0133,-0.0255,-0.0347,-0.0406,-0.045,-0.0086,-0.0085,-0.0084,-0.0083,0,0.0497,0.0524,0.0565,0.0651,0.0706,0.0766,0.0829,0.0891,0.0915,0.0987,0.1077,0.1087,0.0885,0.069,0.0389,0.0233,-0.012,-0.0035,-0.0173,-0.0286,-0.034,-0.0402,-0.013,-0.0075,-0.0076,-0.0076,-0.0077,-0.0077,0.054,0.0585,0.0654,0.0734,0.0801,0.0896,0.0969,0.1061,0.1182,0.1304,0.1303,0.1356,0.1041,0.064,0.0411,-0.0017,-0.0049,-0.0171,-0.0248,-0.0293,-0.0354,-0.0054,-0.0013,-0.0014,-0.0014,-0.0014,-0.0015,0,0.0594,0.065,0.0727,0.083,0.0916,0.0937,0.107,0.1164,0.1342,0.1462,0.1561,0.146,0.1098,0.0683,0.0112,-0.0187,-0.0311,-0.0356,-0.0448,-0.0484,-0.0219,-0.0229,-0.0218,-0.0218,-0.0217,-0.0217,-0.0217,-0.0217,0.0626,0.0716,0.0758,0.0911,0.0984,0.111,0.1195,0.1347,0.1465,0.1643,0.169,0.1694,0.138,0.0401,-0.0273,-0.043,-0.0634,-0.0666,-0.0788,-0.0636,-0.0626,-0.0616,-0.0645,-0.0721,-0.0721,-0.1012,-0.1015,-0.1018]}],[{"header":{"parameterUnit":"m.s-1","parameterCategory":2,"la1":30.2991,"la2":30.254,"lo1":-89.0895,"lo2":-89.0444,"dx":0.0017,"dy":0.0017,"nx":28,"ny":28,"refTime":"2022-11-08T09:00:00:Z","depth":"2","parameterNumber":2,"parameterNumberName":"U-component_of_CURRENTS"},"data":[0,0,0,0,0,0,0,0,0,0,0,0,0,0,0,0,0,0,0,0,0,0,0,0,0,0,0,0,0,0,0,0,0,0,0,0,0,0,0,0,0,0,0,0,0,0,0,0,0,0,0,0,0,0,0,0,0,0,0.2635,0.2636,0,0.2694,0.2694,0.2695,0.2714,0.2714,0.2714,0.2714,0.2702,0.2702,0.2702,0,0,0,0,0,0,0,0,0,0,0,0,0,0.2613,0.2613,0.2635,0.2636,0.2637,0.2694,0.2694,0.2695,0.2714,0.2714,0.2714,0.2714,0.2702,0.2702,0.2702,0,0,0,0,0,0,0,0,0,0,0,0,0,0.2641,0.2613,0.2635,0.2654,0.2656,0.2694,0.2694,0.2695,0.2714,0.2714,0.2714,0.2714,0.2702,0.2702,0.2702,0.2705,0,0,0.2701,0.2701,0,0,0,0,0,0,0,0,0.2639,0.2642,0.265,0.2653,0.2656,0.2697,0.2683,0.2695,0.2714,0.2691,0.2714,0.2713,0.2695,0.2695,0.2706,0.2704,0.2704,0.2701,0.2701,0.2701,0.2701,0,0,0,0,0,0,0,0.2637,0.264,0.2657,0.2651,0.2654,0.2685,0.2688,0.2686,0.2691,0.2693,0.2695,0.2703,0.2696,0.2707,0.2706,0.2704,0.2701,0.2701,0.2701,0.2701,0.2746,0.2747,0,0,0,0,0,0,0.2629,0.2637,0.2655,0.2659,0.2648,0.2685,0.2689,0.2683,0.2693,0.2695,0.2703,0.2704,0.2707,0.2706,0.2706,0.2753,0.2701,0.2701,0.2701,0.2745,0.2746,0.2748,0,0,0,0,0,0,0.2628,0.2629,0.2653,0.2652,0.2657,0.2685,0.268,0.2685,0.2704,0.2702,0.2702,0.2719,0.2707,0.2706,0.2719,0.275,0.2701,0.27,0.2743,0.2745,0.2747,0.2819,0,0,0,0,0,0,0.2627,0.2628,0.2632,0.265,0.2657,0.2677,0.268,0.2686,0.271,0.2711,0.2715,0.2714,0.2707,0.272,0.2719,0.2749,0.27,0.2741,0.2744,0.2746,0.2815,0.2823,0.283,0,0,0,0,0,0.2625,0.2632,0.2632,0.2635,0.2657,0.2678,0.2684,0.2704,0.2711,0.272,0.273,0.2714,0.2735,0.272,0.2719,0.275,0.274,0.2743,0.2746,0.2811,0.2821,0.283,0,0,0,0,0,0,0.2623,0.2635,0.2635,0.2644,0.266,0.2682,0.2701,0.271,0.2728,0.2737,0.2727,0.2727,0.2755,0.2739,0.2723,0.2771,0.2737,0.2739,0.2786,0.2796,0.2803,0.2799,0.27,0,0,0,0,0,0.2623,0.2632,0.2644,0.2652,0.2662,0.2682,0.2698,0.2713,0.2728,0.2737,0.2745,0.2754,0.2767,0.2769,0.2778,0.2796,0.2793,0.2816,0.2824,0.2831,0.2827,0.287,0.2881,0.2758,0.2758,0.2758,0,0,0.2626,0.2634,0.2639,0.2654,0.267,0.2681,0.2691,0.2722,0.2737,0.2732,0.2764,0.2783,0.2779,0.281,0.2821,0.2799,0.2864,0.2834,0.284,0.2833,0.2874,0.2887,0.2897,0.276,0.2759,0.2759,0,0,0.2631,0.264,0.2647,0.2662,0.2691,0.2701,0.2709,0.2742,0.2763,0.2794,0.2804,0.2838,0.285,0.2863,0.2865,0.2915,0.2908,0.2927,0.2958,0.3001,0.3011,0.302,0.3031,0.3041,0.2926,0.2926,0.2926,0,0.2634,0.2638,0.2655,0.2666,0.2685,0.2705,0.2719,0.274,0.2778,0.2808,0.281,0.2876,0.2872,0.2913,0.2936,0.2933,0.2951,0.2924,0.3011,0.302,0.3029,0.3037,0.3047,0.293,0.2929,0.2929,0.2928,0,0.2633,0.2649,0.2659,0.2671,0.2693,0.2715,0.2741,0.2778,0.2811,0.2837,0.2906,0.2926,0.2964,0.2977,0.2969,0.3035,0.3027,0.3022,0.2989,0.3046,0.3051,0.306,0.2935,0.2934,0.2933,0.2932,0,0,0.261,0.2649,0.2654,0.2667,0.2704,0.2718,0.276,0.2803,0.2837,0.2895,0.2949,0.2994,0.3031,0.3036,0.3052,0.3086,0.3157,0.3085,0.3086,0.3096,0.3246,0.316,0.3161,0.3185,0.3187,0.3189,0.3225,0,0.2605,0.2621,0.2651,0.2676,0.2687,0.2738,0.2769,0.2819,0.2868,0.2926,0.2982,0.3032,0.3043,0.3079,0.3122,0.3152,0.3185,0.3146,0.3187,0.3188,0.3106,0.317,0.2921,0.2926,0.3234,0.3235,0.3236,0,0.2591,0.2606,0.2629,0.2683,0.2695,0.2718,0.279,0.2824,0.2909,0.2958,0.3039,0.3079,0.3152,0.3147,0.3236,0.3221,0.324,0.3254,0.3256,0.3153,0.3118,0.292,0.293,0.325,0.3249,0.3248,0.3247,0,0.2551,0.2596,0.2613,0.2629,0.2685,0.2727,0.2764,0.2843,0.2888,0.2987,0.3038,0.3128,0.3183,0.3239,0.328,0.3274,0.3361,0.3349,0.3284,0.3277,0.3057,0.3027,0.3406,0.3405,0.3405,0.3405,0.3405,0,0.2527,0.2544,0.26,0.2607,0.2642,0.2703,0.2757,0.2816,0.291,0.2958,0.3055,0.3109,0.3216,0.3277,0.3303,0.3321,0.3384,0.3296,0.329,0.3074,0.3046,0.3316,0.3305,0.3407,0.3406,0.3406,0.3406,0,0.248,0.2513,0.2534,0.2599,0.2622,0.2649,0.2742,0.2781,0.2881,0.2954,0.2993,0.3119,0.3201,0.3277,0.3357,0.3337,0.3361,0.3347,0.3071,0.3032,0.324,0.3232,0.3279,0.3277,0.3275,0.3273,0.3271,0,0.2453,0.246,0.2514,0.2524,0.2558,0.261,0.2647,0.2754,0.2797,0.2942,0.2967,0.309,0.3139,0.3225,0.3225,0.3249,0.3326,0.3009,0.2944,0.3242,0.3232,0.3228,0.3223,0.2679,0.2673,0.2668,0.2664,0,0.2404,0.2428,0.2442,0.2463,0.2498,0.2522,0.2587,0.2618,0.274,0.2799,0.287,0.2926,0.3029,0.2939,0.2984,0.2964,0.2986,0.2905,0.3301,0.2752,0.268,0.2669,0.2683,0.2618,0.2623,0.2626,0.2628,0.263,0.2367,0.2361,0.2379,0.2388,0.2417,0.2417,0.2401,0.247,0.2505,0.2562,0.2691,0.2685,0.273,0.267,0.2596,0.255,0.2766,0.2632,0.2646,0.2666,0.2592,0.2521,0.2414,0.2417,0.242,0.2423,0.2425,0,0.2303,0.2299,0.2303,0.2289,0.2265,0.232,0.2336,0.2291,0.2273,0.2362,0.2397,0.2221,0.2168,0.2219,0.2083,0.2087,0.2059,0.1994,0.193,0.1978,0.202,0.1911,0.1553,0.155,0.1548,0.1545,0,0,0.2267,0.2229,0.2217,0.2132,0.2128,0.2054,0.2034,0.1991,0.2003,0.1956,0.1935,0.2092,0.2161,0.1827,0.1791,0.1643,0.1795,0.1579,0.2286,0.226,0.2298,0.2404,0.2294,0,0,0,0,0]},{"header":{"parameterUnit":"m.s-1","parameterCategory":2,"la1":30.2991,"la2":30.254,"lo1":-89.0895,"lo2":-89.0444,"dx":0.0017,"dy":0.0017,"nx":28,"ny":28,"refTime":"2022-11-08T09:00:00:Z","depth":"2","parameterNumber":3,"parameterNumberName":"V-component_of_CURRENTS"},"data":[0,0,0,0,0,0,0,0,0,0,0,0,0,0,0,0,0,0,0,0,0,0,0,0,0,0,0,0,0,0,0,0,0,0,0,0,0,0,0,0,0,0,0,0,0,0,0,0,0,0,0,0,0,0,0,0,0,0,0.0331,0.033,0,0.0248,0.0247,0.0246,0.0202,0.0202,0.0202,0.0202,0.0124,0.0122,0.012,0,0,0,0,0,0,0,0,0,0,0,0,0,0.0366,0.0366,0.0331,0.033,0.0329,0.0248,0.0247,0.0246,0.0202,0.0202,0.0202,0.0202,0.0125,0.0122,0.012,0,0,0,0,0,0,0,0,0,0,0,0,0,0.0322,0.0366,0.0331,0.0298,0.0295,0.0249,0.0247,0.0246,0.0202,0.0202,0.0202,0.0202,0.0125,0.0122,0.0119,0.0099,0,0,0.011,0.0108,0,0,0,0,0,0,0,0,0.0325,0.0321,0.0304,0.0301,0.0296,0.0237,0.0231,0.0197,0.0201,0.0235,0.0202,0.0202,0.0163,0.0157,0.0139,0.0095,0.0092,0.0109,0.0107,0.0106,0.0105,0,0,0,0,0,0,0,0.0328,0.0324,0.0297,0.0303,0.0299,0.0259,0.0253,0.0224,0.0199,0.0232,0.0229,0.0222,0.0161,0.0142,0.0137,0.0091,0.0109,0.0107,0.0105,0.0103,0.0032,0.0032,0,0,0,0,0,0,0.0346,0.0327,0.0299,0.0294,0.0313,0.0259,0.0252,0.0255,0.0199,0.0191,0.0223,0.0221,0.0147,0.0141,0.0134,0.013,0.0106,0.0103,0.0101,0.0032,0.0032,0.0032,0,0,0,0,0,0,0.0347,0.0345,0.0303,0.0309,0.0302,0.0259,0.0261,0.0253,0.0237,0.0192,0.0183,0.0216,0.0147,0.0138,0.0115,0.0125,0.0102,0.0099,0.0032,0.0032,0.0032,0.0106,0,0,0,0,0,0,0.0349,0.0346,0.0349,0.0311,0.0302,0.0288,0.0261,0.0251,0.0234,0.023,0.0183,0.0176,0.0147,0.012,0.0112,0.0121,0.0096,0.0032,0.0032,0.0032,0.0104,0.0109,0.0113,0,0,0,0,0,0.035,0.036,0.035,0.0346,0.031,0.0289,0.0281,0.0248,0.0233,0.0233,0.0199,0.0177,0.0114,0.0117,0.0108,0.0116,0.0032,0.0032,0.0032,0.0102,0.0108,0.0113,0,0,0,0,0,0,0.0372,0.0355,0.0343,0.0346,0.0324,0.0282,0.0277,0.0253,0.0224,0.0222,0.0177,0.0168,0.0149,0.012,0.0125,0.0093,0.0069,0.0067,0.0125,0.013,0.0135,0.0165,0.0094,0,0,0,0,0,0.0381,0.0388,0.0359,0.0362,0.0355,0.0316,0.0301,0.0282,0.0252,0.0239,0.0204,0.0168,0.014,0.0127,0.0094,0.0079,0.0051,0.0077,0.0081,0.0086,0.0102,0.0056,0.0058,0.0031,0.0031,0.0031,0,0,0.0389,0.0381,0.0384,0.0368,0.0348,0.0347,0.0308,0.0295,0.0293,0.0236,0.0222,0.0182,0.0138,0.0121,0.011,0.01,0.0079,0.0085,0.009,0.0105,0.0056,0.0059,0.0061,0.0031,0.0031,0.0031,0,0,0.0414,0.0406,0.0419,0.0409,0.0389,0.037,0.0371,0.0334,0.0317,0.0297,0.0256,0.0228,0.0179,0.0155,0.0135,0.0145,0.0102,0.0128,0.0181,0.0135,0.0137,0.0139,0.0114,0.0113,0.0134,0.0134,0.0134,0,0.0421,0.0439,0.0418,0.0428,0.0425,0.0388,0.0399,0.0378,0.0337,0.033,0.0305,0.0236,0.0199,0.0183,0.0189,0.0159,0.0129,0.0167,0.0143,0.0144,0.0144,0.0118,0.0116,0.0138,0.0137,0.0137,0.0136,0,0.0457,0.0468,0.0476,0.0483,0.0477,0.0482,0.0457,0.0448,0.0422,0.0398,0.037,0.0312,0.0276,0.0254,0.0227,0.0213,0.0191,0.0153,0.0135,0.0152,0.0123,0.0119,0.0143,0.0141,0.014,0.0139,0,0,0.0479,0.0498,0.0502,0.0518,0.0508,0.0512,0.0515,0.0509,0.052,0.0468,0.0468,0.0413,0.0378,0.0354,0.0305,0.027,0.0248,0.0223,0.0219,0.0211,0.016,0.0144,0.0138,0.0201,0.0201,0.02,0.0142,0,0.0511,0.0553,0.0548,0.0587,0.0606,0.0584,0.0594,0.0584,0.0563,0.0554,0.0493,0.0471,0.0416,0.0398,0.0356,0.0273,0.0241,0.0269,0.0135,0.0132,0.0125,0.0134,0.0162,0.0112,0.0138,0.0137,0.0137,0,0.0547,0.0572,0.0619,0.0651,0.0657,0.0675,0.0694,0.0697,0.0677,0.0657,0.0623,0.0569,0.0521,0.0461,0.0344,0.0361,0.0277,0.0208,0.0203,0.0163,0.0109,0.0096,0.0104,0.013,0.0131,0.0131,0.0132,0,0.0585,0.0623,0.0669,0.0679,0.0705,0.0724,0.0737,0.0733,0.0751,0.0725,0.073,0.065,0.0616,0.0497,0.0362,0.0348,0.0226,0.0181,0.009,0.0088,0.0075,0.0073,0.0098,0.0098,0.0099,0.0099,0.0099,0,0.0625,0.066,0.0697,0.0723,0.0782,0.0778,0.0833,0.083,0.0838,0.0875,0.0792,0.0794,0.0621,0.0529,0.0392,0.0241,0.0245,0.0111,0.0072,0.0102,0.0103,0.0085,0.0085,0.0097,0.0097,0.0097,0.0098,0,0.0659,0.0681,0.0738,0.0784,0.0805,0.0848,0.0905,0.0943,0.094,0.0983,0.0979,0.0902,0.0784,0.061,0.042,0.0292,0.0137,0.0079,0.014,0.0109,0.0024,0.0028,-0.0025,-0.0026,-0.0027,-0.0027,-0.0028,0,0.0681,0.0717,0.0791,0.0833,0.0859,0.0923,0.0971,0.0993,0.1041,0.1056,0.1085,0.0988,0.0935,0.0657,0.0413,0.0177,0.0137,0.0042,0.0016,0.0044,0.0011,0.0016,0.0021,0.0029,0.0029,0.0029,0.0029,0,0.0721,0.075,0.0799,0.089,0.0954,0.1029,0.1102,0.1156,0.1191,0.1224,0.1246,0.1203,0.0958,0.0719,0.0398,0.0239,0.008,0.0032,0.0038,0.0058,0.009,0.0059,0.0063,0.0028,0.0028,0.0028,0.0028,0.0028,0.0751,0.0793,0.0863,0.0947,0.1023,0.112,0.1187,0.1265,0.1345,0.1394,0.1362,0.1294,0.1041,0.0623,0.0356,0.0073,0.0084,-0.0025,-0.0023,-0.0021,-0.0003,0.0026,-0.0043,-0.0043,-0.0044,-0.0044,-0.0044,0,0.0783,0.0834,0.0913,0.1013,0.1094,0.1135,0.1261,0.1324,0.1419,0.1458,0.1466,0.1211,0.0956,0.0659,0.0247,0.0005,-0.001,-0.0079,-0.0043,-0.004,-0.0038,-0.0019,-0.0065,-0.0066,-0.0067,-0.0067,0,0,0.0801,0.0873,0.0913,0.1046,0.1119,0.1234,0.1305,0.1395,0.1451,0.1476,0.1434,0.1374,0.1028,0.0721,0.0401,0.0164,0.0115,0.0117,0.0163,0.0248,0.0253,0.0025,0.006,0,0,0,0,0]}],[{"header":{"parameterUnit":"m.s-1","parameterCategory":2,"la1":30.2991,"la2":30.254,"lo1":-89.0895,"lo2":-89.0444,"dx":0.0017,"dy":0.0017,"nx":28,"ny":28,"refTime":"2022-11-08T09:00:00:Z","depth":"4","parameterNumber":2,"parameterNumberName":"U-component_of_CURRENTS"},"data":[0,0,0,0,0,0,0,0,0,0,0,0,0,0,0,0,0,0,0,0,0,0,0,0,0,0,0,0,0,0,0,0,0,0,0,0,0,0,0,0,0,0,0,0,0,0,0,0,0,0,0,0,0,0,0,0,0,0,0.1474,0.1474,0,0.1489,0.1489,0.1489,0.1526,0.1527,0.1528,0.1529,0.159,0.1591,0.1592,0,0,0,0,0,0,0,0,0,0,0,0,0,0.1475,0.1475,0.1474,0.1474,0.1474,0.1489,0.1489,0.1489,0.1526,0.1527,0.1528,0.153,0.159,0.1591,0.1592,0,0,0,0,0,0,0,0,0,0,0,0,0,0.1479,0.1475,0.1473,0.1496,0.1498,0.1489,0.1489,0.1489,0.1526,0.1527,0.1529,0.153,0.159,0.1591,0.1592,0.157,0,0,0.1595,0.1595,0,0,0,0,0,0,0,0,0.1479,0.1479,0.1492,0.1494,0.1497,0.1509,0.1512,0.1519,0.1526,0.1513,0.1529,0.1531,0.1567,0.157,0.1567,0.1572,0.1575,0.1595,0.1596,0.1596,0.1597,0,0,0,0,0,0,0,0.1479,0.1478,0.1478,0.1493,0.1496,0.1505,0.1507,0.1513,0.1531,0.1515,0.1518,0.1522,0.1569,0.1565,0.1569,0.1576,0.1595,0.1596,0.1597,0.1597,0.1696,0.1698,0,0,0,0,0,0,0.1479,0.1478,0.1477,0.1478,0.1494,0.1504,0.1506,0.1502,0.1531,0.1536,0.1521,0.1524,0.1563,0.1567,0.1571,0.1645,0.1596,0.1597,0.1598,0.1694,0.1696,0.1698,0,0,0,0,0,0,0.1479,0.1478,0.1477,0.1481,0.1482,0.1503,0.1498,0.1502,0.1537,0.1535,0.1542,0.1557,0.1564,0.1569,0.1614,0.1644,0.1598,0.1599,0.1692,0.1695,0.1697,0.173,0,0,0,0,0,0,0.1478,0.1478,0.1495,0.148,0.1481,0.1495,0.1497,0.1501,0.1535,0.1541,0.1567,0.1572,0.1566,0.1612,0.1615,0.1645,0.16,0.1689,0.1693,0.1696,0.1726,0.1734,0.174,0,0,0,0,0,0.1478,0.1487,0.1495,0.1497,0.1497,0.1496,0.1498,0.1516,0.1536,0.1554,0.158,0.1573,0.1638,0.1614,0.1617,0.1648,0.1687,0.1692,0.1696,0.1723,0.1732,0.174,0,0,0,0,0,0,0.1506,0.1491,0.15,0.1508,0.1516,0.1504,0.1527,0.1537,0.1568,0.1589,0.159,0.1596,0.1651,0.1648,0.1622,0.1691,0.1665,0.167,0.1685,0.1693,0.17,0.1694,0.1601,0,0,0,0,0,0.1517,0.1517,0.1511,0.1524,0.153,0.1537,0.1548,0.156,0.1575,0.1592,0.161,0.1638,0.1663,0.1679,0.17,0.1727,0.1736,0.1754,0.1761,0.1766,0.1767,0.1819,0.183,0.1713,0.1713,0.1713,0,0,0.1532,0.1526,0.153,0.1531,0.154,0.1547,0.1548,0.1575,0.1593,0.1593,0.1642,0.1666,0.168,0.1718,0.1742,0.1722,0.1805,0.1772,0.1776,0.1774,0.1825,0.1836,0.1846,0.1716,0.1715,0.1715,0,0,0.1549,0.156,0.1563,0.1568,0.1586,0.1586,0.1603,0.1614,0.1638,0.1675,0.1691,0.1732,0.1765,0.1775,0.1784,0.1841,0.1845,0.1863,0.1881,0.1933,0.1942,0.1951,0.1971,0.1981,0.1858,0.1858,0.1858,0,0.1577,0.1571,0.157,0.1575,0.1589,0.1607,0.1623,0.1638,0.1669,0.1699,0.1704,0.178,0.1786,0.1831,0.1848,0.1854,0.1881,0.1844,0.194,0.1948,0.1957,0.1975,0.1986,0.186,0.186,0.1859,0.1859,0,0.1579,0.1592,0.1599,0.1606,0.1624,0.1642,0.1658,0.1697,0.1732,0.175,0.1824,0.1836,0.1883,0.1891,0.1879,0.1946,0.1946,0.1947,0.1913,0.197,0.1986,0.1997,0.1863,0.1862,0.1861,0.1861,0,0,0.1588,0.1598,0.1605,0.1616,0.1645,0.1653,0.1701,0.1741,0.1786,0.1827,0.1883,0.1919,0.1948,0.1961,0.1967,0.1992,0.2056,0.1994,0.1995,0.2001,0.2165,0.2029,0.2027,0.2087,0.2089,0.2091,0.215,0,0.1596,0.1606,0.1616,0.1645,0.1652,0.1692,0.1729,0.1778,0.1827,0.1885,0.1922,0.198,0.1969,0.2004,0.2032,0.206,0.2088,0.204,0.2118,0.212,0.1983,0.2036,0.2098,0.2157,0.216,0.2161,0.2163,0,0.1586,0.1595,0.1623,0.166,0.1672,0.1704,0.1782,0.1819,0.1903,0.1949,0.202,0.2054,0.211,0.2089,0.2168,0.2148,0.2163,0.2168,0.2171,0.2038,0.2004,0.2092,0.2181,0.218,0.2178,0.2177,0.2176,0,0.1565,0.1597,0.1624,0.1634,0.1682,0.1728,0.177,0.1854,0.1898,0.2004,0.2055,0.2133,0.2183,0.2226,0.2244,0.2228,0.2315,0.2294,0.2184,0.2174,0.2262,0.2253,0.2352,0.2352,0.2352,0.2352,0.2352,0,0.1539,0.1563,0.1623,0.1631,0.1681,0.173,0.1801,0.1861,0.1953,0.2007,0.2097,0.2144,0.2227,0.228,0.2283,0.2264,0.2361,0.2191,0.2186,0.2274,0.2265,0.2269,0.2258,0.2354,0.2354,0.2353,0.2353,0,0.1497,0.1535,0.1567,0.1638,0.1667,0.1708,0.1802,0.1844,0.1956,0.203,0.2071,0.2183,0.2253,0.2306,0.2369,0.2302,0.2299,0.227,0.2357,0.2356,0.2111,0.2102,0.2144,0.2139,0.2136,0.2133,0.213,0,0.1465,0.1481,0.1565,0.1589,0.1627,0.1695,0.1734,0.1837,0.1881,0.203,0.2051,0.2167,0.2225,0.2204,0.2273,0.228,0.2253,0.223,0.2159,0.2102,0.2093,0.209,0.2086,0.2125,0.2124,0.2123,0.2122,0,0.141,0.1464,0.1491,0.1542,0.1589,0.1623,0.1693,0.171,0.1827,0.1944,0.1984,0.2013,0.2084,0.2118,0.2146,0.2144,0.2229,0.2193,0.2199,0.2132,0.208,0.2074,0.2074,0.211,0.2112,0.2113,0.2113,0,0.1382,0.139,0.144,0.147,0.1526,0.1529,0.1573,0.1612,0.1663,0.1822,0.1832,0.1952,0.2064,0.205,0.2074,0.2065,0.2024,0.1941,0.1959,0.1974,0.1889,0.1796,0.1738,0,0,0,0,0,0.1338,0.1331,0.1356,0.1369,0.142,0.1452,0.1531,0.1578,0.1691,0.1673,0.1745,0.1799,0.1833,0.1897,0.1853,0.2,0.2035,0.1938,0.1949,0.2042,0.2056,0.1971,0,0,0,0,0,0,0.1303,0.133,0.1322,0.128,0.1277,0.131,0.1358,0.1434,0.143,0.156,0.1592,0.1691,0.1757,0.1844,0.182,0.1838,0.1806,0.2016,0.2011,0.2034,0.2047,0.2058,0.1976,0,0,0,0,0]},{"header":{"parameterUnit":"m.s-1","parameterCategory":2,"la1":30.2991,"la2":30.254,"lo1":-89.0895,"lo2":-89.0444,"dx":0.0017,"dy":0.0017,"nx":28,"ny":28,"refTime":"2022-11-08T09:00:00:Z","depth":"4","parameterNumber":3,"parameterNumberName":"V-component_of_CURRENTS"},"data":[0,0,0,0,0,0,0,0,0,0,0,0,0,0,0,0,0,0,0,0,0,0,0,0,0,0,0,0,0,0,0,0,0,0,0,0,0,0,0,0,0,0,0,0,0,0,0,0,0,0,0,0,0,0,0,0,0,0,0.0309,0.0309,0,0.028,0.028,0.028,0.0268,0.0268,0.0268,0.0268,0.023,0.0229,0.0228,0,0,0,0,0,0,0,0,0,0,0,0,0,0.0313,0.0313,0.0309,0.0309,0.0309,0.028,0.028,0.0279,0.0268,0.0268,0.0268,0.0268,0.023,0.0229,0.0228,0,0,0,0,0,0,0,0,0,0,0,0,0,0.03,0.0313,0.0309,0.03,0.0298,0.028,0.028,0.0279,0.0268,0.0268,0.0268,0.0268,0.0231,0.0229,0.0228,0.0215,0,0,0.0223,0.0222,0,0,0,0,0,0,0,0,0.0301,0.03,0.0301,0.03,0.0299,0.0278,0.0267,0.0257,0.0268,0.0279,0.0268,0.0268,0.0245,0.0243,0.0237,0.0213,0.0211,0.0222,0.0221,0.0221,0.022,0,0,0,0,0,0,0,0.0302,0.0301,0.0297,0.0301,0.03,0.0282,0.0281,0.0265,0.0261,0.0278,0.0277,0.0275,0.0245,0.0238,0.0236,0.0211,0.0223,0.0221,0.022,0.0219,0.0176,0.0175,0,0,0,0,0,0,0.0308,0.0302,0.0298,0.0297,0.0301,0.0283,0.0281,0.0284,0.0262,0.0259,0.0274,0.0274,0.0241,0.0237,0.0234,0.0237,0.0221,0.0219,0.0218,0.0176,0.0176,0.0175,0,0,0,0,0,0,0.0309,0.0309,0.03,0.0299,0.0296,0.0283,0.0286,0.0284,0.0282,0.0259,0.0256,0.0276,0.0241,0.0236,0.0226,0.0235,0.0218,0.0217,0.0176,0.0176,0.0176,0.023,0,0,0,0,0,0,0.0309,0.0309,0.0316,0.0299,0.0297,0.0297,0.0286,0.0283,0.028,0.028,0.0259,0.0256,0.0241,0.0228,0.0224,0.0232,0.0216,0.0176,0.0176,0.0176,0.0228,0.0231,0.0234,0,0,0,0,0,0.0309,0.0318,0.0316,0.0316,0.0306,0.0297,0.0294,0.0284,0.028,0.0283,0.0268,0.0257,0.0223,0.0227,0.0222,0.023,0.0176,0.0176,0.0176,0.0227,0.0231,0.0234,0,0,0,0,0,0,0.0322,0.0317,0.0315,0.0322,0.0314,0.0295,0.0297,0.0288,0.0278,0.0281,0.0257,0.0252,0.0245,0.0226,0.0231,0.0214,0.0197,0.0195,0.0237,0.024,0.0243,0.0262,0.0214,0,0,0,0,0,0.0328,0.0338,0.0325,0.0333,0.0329,0.0314,0.031,0.0304,0.0292,0.0288,0.0272,0.0254,0.0238,0.0231,0.0214,0.0206,0.0179,0.0205,0.0208,0.0211,0.0221,0.018,0.018,0.0174,0.0174,0.0174,0,0,0.0336,0.0335,0.0341,0.0337,0.033,0.0332,0.0312,0.0312,0.0317,0.0285,0.0287,0.0265,0.0237,0.023,0.0225,0.0218,0.0197,0.0211,0.0214,0.0222,0.0179,0.018,0.0181,0.0174,0.0174,0.0174,0,0,0.0355,0.0356,0.0368,0.0365,0.0359,0.0351,0.0353,0.0338,0.0335,0.0329,0.0308,0.0292,0.0268,0.0252,0.024,0.0246,0.0214,0.0238,0.0271,0.0231,0.0232,0.0232,0.0197,0.0194,0.0241,0.0241,0.0241,0,0.0363,0.0379,0.0369,0.0377,0.0382,0.0362,0.0375,0.0366,0.0351,0.0351,0.0337,0.0301,0.0278,0.0269,0.0274,0.0255,0.0228,0.0264,0.0236,0.0236,0.0235,0.0199,0.0195,0.0243,0.0243,0.0243,0.0243,0,0.0387,0.0402,0.0409,0.0418,0.042,0.0428,0.0417,0.0417,0.0408,0.0397,0.0385,0.0349,0.0329,0.0315,0.0299,0.0286,0.0267,0.0245,0.0232,0.0239,0.0201,0.0195,0.0247,0.0246,0.0245,0.0245,0,0,0.0403,0.0423,0.0427,0.0444,0.0445,0.0452,0.046,0.0462,0.0473,0.0446,0.0449,0.0416,0.0396,0.038,0.0351,0.0319,0.0288,0.0288,0.0285,0.0263,0.0203,0.019,0.0182,0.0262,0.0261,0.0261,0.0178,0,0.0426,0.046,0.0462,0.0498,0.0513,0.0506,0.0518,0.0518,0.0508,0.0504,0.0463,0.0454,0.042,0.0413,0.0376,0.0312,0.0276,0.0313,0.0191,0.0188,0.0183,0.0176,0.0259,0.0174,0.0173,0.0172,0.0171,0,0.0449,0.0472,0.0513,0.0547,0.0554,0.0575,0.0598,0.0606,0.0592,0.0582,0.0559,0.0523,0.0484,0.0446,0.0342,0.0368,0.0295,0.0238,0.0233,0.0201,0.0165,0.0163,0.016,0.0161,0.0162,0.0163,0.0163,0,0.0472,0.0509,0.0551,0.0562,0.0591,0.0616,0.0633,0.0636,0.0652,0.0635,0.0636,0.0576,0.0549,0.0452,0.0339,0.0339,0.0213,0.0192,0.0109,0.0107,0.0121,0.0122,0.0112,0.0112,0.0112,0.0112,0.0112,0,0.0495,0.0529,0.0572,0.0595,0.065,0.0657,0.0709,0.0711,0.072,0.0741,0.0685,0.0676,0.0549,0.0462,0.0352,0.0217,0.0217,0.0117,0.0085,0.0145,0.0149,0.0117,0.0118,0.0109,0.011,0.011,0.0111,0,0.0512,0.0538,0.0589,0.064,0.0664,0.0706,0.0767,0.0796,0.0799,0.0821,0.0818,0.0749,0.0637,0.0499,0.0335,0.024,0.0106,0.0055,0.0136,0.0109,0.0024,0.003,-0.0042,-0.0043,-0.0044,-0.0045,-0.0045,0,0.0521,0.0552,0.0629,0.0668,0.0698,0.0763,0.0806,0.0835,0.0866,0.0863,0.0871,0.0781,0.0713,0.0477,0.0329,0.0112,0.0078,0.0006,0.0012,0.0033,0.0008,0.0015,0.0022,-0.0047,-0.0047,-0.0047,-0.0048,0,0.0537,0.0572,0.0615,0.0699,0.0761,0.0826,0.0891,0.0919,0.0944,0.0948,0.0907,0.0788,0.0659,0.0478,0.0309,0.0154,0.0052,-0.0005,-0.0004,0.0001,0.0025,0.0004,0.0011,-0.0051,-0.0051,-0.005,-0.005,0,0.0552,0.0584,0.0648,0.072,0.0798,0.0865,0.0901,0.0935,0.0963,0.0957,0.0941,0.0803,0.0727,0.0499,0.0345,0.019,0.0148,0.0091,0.0086,0.0088,0.0148,0.0199,0.0151,0,0,0,0,0,0.056,0.0595,0.0662,0.0737,0.0816,0.0863,0.0944,0.0972,0.0999,0.0973,0.0959,0.0836,0.0608,0.0518,0.036,0.032,0.0118,0.0128,0.005,-0.007,-0.0066,-0.0019,0,0,0,0,0,0,0.0562,0.0623,0.0654,0.0741,0.0792,0.0878,0.0932,0.0954,0.0944,0.0946,0.0833,0.078,0.0566,0.0691,0.0348,0.0304,0.0229,0.0028,0.0024,-0.0072,-0.0068,-0.0065,-0.0016,0,0,0,0,0]}]]